DIAMANT DEB, 2685

Orbit data source: Space-Track

DIAMANT DEB, 2685 is space debris in LEO originally from a launch on Wed, 15 Feb 1967 UTC launched from the Hamma Guira Space Track Range (HGSTR). Debris objects in space refer to the collection of defunct objects orbiting the Earth. Examples of debris include non-operational satellites, rocket bodies, and fragments generated from explosions, collisions, or faulty payload assembly.

Loading next visibility...
Identifier
2685, 1967-014F
Orbit
LEO
Country
Flag of FRFR
Related business
Manufacturer
Unknown
Mission
Spacecraft
Bus & Motor
Unknown
Mass
Unknown
Launch date (UTC)
1967-02-15 (60 years ago)
Launch vehicle
Unknown
Launch site
Hamma Guira Space Track Range (HGSTR)
Object type
Payload
Rocket body
Debris
Shape & HBR
Unknown shape, 0.1 m
Radar Cross Section
Medium (>0.1 m² and <1 m²)

Expand to show TLE details & history
Last TLE update: 2 days ago

TLE from 2 days ago
0 DIAMANT DEB
1 02685U 67014F   26252.42814971  .00003787  00000-0  63079-3 0  9995
2 02685  38.9334  28.0355 0341218 272.5914  83.5831 14.38588264979614
Epoch: 2026-09-09T10:16Z
TLE epoch observation values (Epoch: 2026-09-09T10:16:32.134Z)
Latitude
0.00001°
Longitude
-114.57873°
Altitude
743.54 km
Speed
7.495 km/s
True Right ascension
01h 52m 08s
True Declination
0° 00' 00"
Sunlit
Object was in full shadow at epoch
Visualization orbit readout
Latitude
Unknown
Longitude
Unknown
Altitude
Unknown
Speed
Unknown
Apparent Right ascension
Unknown
Apparent Declination
Unknown
Sunlit
N/A
Visualization observer readout
Local Sidereal Time
12:24:29
Azimuth
Unknown
Elevation
Unknown
Doppler factor
Unknown
Orbital elements
Apogee altitude
1,009.45 km
Perigee altitude
521.93 km
Semi-major axis
7,143.827 km
Eccentricity
0.03412
Inclination
38.9334°
RAAN
28.0355°
Arg. of periapsis
272.5914°
True anomaly
87.48426°
Mean anomaly
83.5831°
Eccentric anomaly
85.53219°
Mean motion
3.59457 °/min
Orbital period
100.15 mins
BSTAR
0.00063079
Loading maneuver chart data...
Computing Atmospheric mass density...
Loading historical data...
Loading historical data...
Loading historical data...
Loading historical data...
Loading historical data...
Loading historical data...
Loading historical data...

Documentation

Showing up to 5 results
|